Zurück zum Katalog

STARLINK-31461

AktivKommunikationVLEO
NORAD 59370·PAYLOAD·🇺🇸 United States

Gestartet Mar 31, 2024 von Cape Canaveral Space Force Station

Loading…

Nächste Überflüge (nächste 24 Stunden)

TLE

AktuellSource: CelesTrak SupGP

Epoche: Sep 14, 2026, 22:32 UTC

1 59370C 24060Y   26257.93937500  .00034873  00000+0  12632-2 0  2571
2 59370  42.9997 260.2372 0001423 264.7074  12.7034 15.27557074    19

Verfolge STARLINK-31461 in Echtzeit mit AllMySat

Download on the App Store